Regional Weather Roundup
Issued by NWS Mobile, AL

Home | Current Version | Previous Version | Text Only | Print | Product List | Glossary On
Versions: 1 2 3 4 5 6 7 8 9 10 11 12 13 14 15 16 17 18 19 20 21 22 23 24 25 26
000
ASUS44 KMOB 120812
RWRMOB
REGIONAL WEATHER ROUNDUP
NATIONAL WEATHER SERVICE MOBILE AL
200 AM CST TUE DEC 12 2017

NOTE: "FAIR" INDICATES FEW OR NO CLOUDS BELOW 12,000 FEET WITH NO
      SIGNIFICANT WEATHER AND/OR OBSTRUCTIONS TO VISIBILITY.

  * THESE STATIONS ARE PART OF THE UNIVERSITY OF SOUTH ALABAMA
    MESONET AND ARE NOT UNDER NWS OR FAA QUALITY CONTROL.

ALZ061>064-120900-
COASTAL ALABAMA

CITY           SKY/WX    TMP DP  RH WIND       PRES   REMARKS
MOBILE REG APT CLEAR     49  43  80 SW7       30.04F
BROOKLEY FIELD CLEAR     53  44  71 W8        30.04F
USA CAMPUS*    NOT AVBL
DOG RIVER*     NOT AVBL


CITY           SKY/WX    TMP DP  RH WIND       PRES   REMARKS
GULF SHORES    CLEAR     51  46  83 W9        30.06F

$$

ALZ051>060-120900-
INTERIOR SOUTHWEST AND SOUTH CENTRAL ALABAMA

CITY           SKY/WX    TMP DP  RH WIND       PRES   REMARKS
GREENVILLE     CLEAR     45  39  79 SW6       29.96F
EVERGREEN      CLEAR     41  38  89 CALM      30.00F
ATMORE*          N/A    N/A N/A N/A SW6         N/A
ANDALUSIA/OPP  CLEAR     48  42  80 SW5       30.00F
ANDALUSIA*       N/A     48  45  87 SW6       29.99F
FLORALA APT    CLEAR     48  43  82 VRB3      30.03F
FLORALA*         N/A     46  45  93 CALM      30.70F

$$

FLZ001>006-120900-
WESTERN FLORIDA PANHANDLE

CITY           SKY/WX    TMP DP  RH WIND       PRES   REMARKS
PENSACOLA      CLEAR     53  45  74 W10       30.03F
NAS PENSACOLA  CLEAR     53  45  74 W5        30.04F
MILTON         CLEAR     49  46  90 W9        30.02F
WHTNG S FIELD  CLEAR     53  47  79 CALM      30.02F


CITY           SKY/WX    TMP DP  RH WIND       PRES   REMARKS
JAY*             N/A     46  45  93 SW8       30.02F
DUKE FIELD     CLEAR     53  46  78 W7        30.02F
CRESTVIEW      CLEAR     49  46  90 W7        30.04F
VALPARAISO     CLEAR     54  48  81 W10       30.03F
DESTIN         CLEAR     62  51  67 W8        30.03F

$$

MSZ076-079-120900-
INTERIOR SOUTHEAST MISSISSIPPI

CITY           SKY/WX    TMP DP  RH WIND       PRES   REMARKS
LEAKESVILLE*     N/A     46  41  81 W6        30.02F
AGRICOLA*        N/A     45  43  93 CALM      30.02F

$$

MARINE OBSERVATIONS

STATION/POSITION TIME  TEMP    WIND        PRES    WAVE
                       AIR SEA DIR/SP/G            HT/PER
                 (UTC) (F)     (DEG/KT/KT) (MB)    (FT/S)
PASCAGOULA       0748   53     250/  9/ 15 1017.7F
PETIT BOIS ISLND 0748   57     260/ 19/ 25 1018.7F
KATRINA CUT      0730   56     270/ 16     1018.0F
CEDAR POINT      0730   56     270/ 15     1017.6F
E DAUPHIN ISLAND 0700   58     260/ 12/ 18 1017.9F
MIDDLE BAY LIGHT 0730   54     260/ 16     1016.9F
USCG MOBILE BAY  0748   52 56  260/  9/ 13 1016.9F
STATE DOCKS      0748   52 56              1016.6F
MEAHER PARK      0730   54     230/  7     1017.6F
WEEKS BAY        0645   54                 1018.0S
FORT MORGAN      0748   58     270/ 25/ 28   N/A
12 S ORANGE BCH  NOT AVBL
PENSACOLA BAY    0748   55 56              1017.3F
64 S DAUPHIN ISL 0750   66 74  260/ 19/ 23 1019.0F   4/ 5
67 S FORT MORGAN 0730   65                 1019.0F

$$

SELECTED LOCATIONS ACROSS THE REGION

CITY           SKY/WX    TMP DP  RH WIND       PRES   REMARKS
NEW ORLEANS    CLEAR     51  48  89 SW8       30.10S
GULFPORT       CLEAR     51  47  86 W6        30.06F
PASCAGOULA AP  CLEAR     47  43  86 SW3       30.06F
PASCAGOULA*      N/A     50  46  87 SW5         N/A
HATTIESBURG    CLEAR     51  43  74 W7        30.02F
LAUREL         PTCLDY    47  39  74 SW3       30.02F
MERIDIAN       CLEAR     40  36  86 CALM      29.99R
JACKSON        CLEAR     53  36  52 NW5       30.01R
MONTGOMERY     CLEAR     44  37  76 SW7       29.95F
TROY           CLEAR     43  40  89 SW5       29.98F
ASHFORD*         N/A     48  45  87 SW6       29.99F
DOTHAN         CLEAR     47  44  90 SW9       30.03F
PANAMA CITY    CLEAR     39  37  92 CALM      30.03S

$$





USA.gov is the U.S. government's official web portal to all federal, state and local government web resources and services.